STARLINK-11363, 62012

Orbit data source: Space-Track

STARLINK-11363, 62012 is a payload satellite owned by SpaceX/Seattle (US) in LEO that was launched on Mon, 18 Nov 2024 UTC via an FALCON 9 launch vehicle from the Air Force Western Test Range (AFWTR). Payload-class satellites include a variety of spacecraft equipped with specific instruments for various scientific and technological missions. These include communications satellites like Starlink; space stations such as the ISS; scientific satellites like the Hubble; Earth observation satellites from companies like Planet Labs, Umbra, and HawkEye 360; GPS; miniature CubeSats for education and research; and military/defense satellites.

Loading next visibility...
Identifier
62012, 2024-213E
Orbit
LEO
Country
Flag of USUS
Related business
Manufacturer
SpaceX/Seattle
Mission
Operational Commercial Communications
Bus & Motor
STARLINK V2MD, Unknown motor
Mass
960 kg wet, ~910 kg dry
Launch date (UTC)
2024-11-18 (1 year ago)
Launch vehicle
FALCON 9
Launch site
Air Force Western Test Range (AFWTR)
Object type
Payload
Rocket body
Debris
Shape & HBR
Box + 2 Pan, 18.1 m
Radar Cross Section
36.964 m², Large (>1 m²)

Expand to show TLE details & history
Last TLE update: 6 hours ago

TLE from 6 hours ago
0 STARLINK-11363
1 62012U 24213E   26105.60314605  .00134744  00000-0  10976-2 0  9990
2 62012  53.1579 219.2306 0002121  85.1473 274.9787 15.69741943 80719
Epoch: 2026-04-15T14:28Z
TLE epoch observation values (Epoch: 2026-04-15T14:28:31.818Z)
Latitude
-0.00004°
Longitude
158.33532°
Altitude
360.426 km
Speed
7.694 km/s
True Right ascension
14h 36m 55s
True Declination
0° 00' 00"
Sunlit
Object was in full shadow at epoch
Visualization orbit readout
Latitude
Unknown
Longitude
Unknown
Altitude
Unknown
Speed
Unknown
Apparent Right ascension
Unknown
Apparent Declination
Unknown
Sunlit
N/A
Visualization observer readout
Local Sidereal Time
03:04:48
Azimuth
Unknown
Elevation
Unknown
Doppler factor
Unknown
Orbital elements
Apogee altitude
361.326 km
Perigee altitude
358.467 km
Semi-major axis
6,738.033 km
Eccentricity
0.00021
Inclination
53.1579°
RAAN
219.2306°
Arg. of periapsis
85.1473°
True anomaly
274.95449°
Mean anomaly
274.9787°
Eccentric anomaly
274.96659°
Mean motion
3.92413 °/min
Orbital period
91.74 mins
BSTAR
0.0010976
Loading maneuver chart data...
Computing Atmospheric mass density...
Loading historical data...
Loading historical data...
Loading historical data...
Loading historical data...
Loading historical data...
Loading historical data...
Loading historical data...

Documentation

Showing up to 5 results
|